Location: New Canada
(47.1017°N, 68.5042°W)
Time: 21:27:30
(UTC+00:00)

RS-44 - Pass Details

Date: 01 April 2023
Orbit: 1175 x 1510 km, 82.5° (Epoch: 02 June)

Event Time Altitude Azimuth Distance (km) Brightness Sun altitude
Rises 03:43:50 0° 356° (N) 4,359 ? -37.1°
Reaches altitude 10° 03:47:38 10° 13° (NNE) 3,444 ? -37.3°
Maximum altitude 03:53:22 20° 58° (ENE) 2,826 ? -37.5°
Enters shadow 03:55:37 18° 78° (ENE) 2,967 ? -37.6°
